CAPE
0 0 0 22 11 19 129 85 80 115 145 65 48 24 31 40 76 93 153 210 201 245 325 365 349 379 512 561 602 742 814 927 1052 1043 964 824 728 838 1059 1269 1735 1835 1545 1479
0 0 0 0 0 0 130 95 118 51 21 42 57 31 79 66 53 50 153 208 275 215 280 378 371 369 449 599 648 640 663 785 835 971 946 809 958 601 749 1257 1569 1314 991 1316
0 0 0 0 0 0 0 20 98 79 81 19 9 74 33 42 28 41 84 100 154 212 196 323 357 365 409 531 656 507 670 814 835 969 1024 1272 1098 905 641 1122 1085 1215 1245 1333
0 0 0 0 0 0 27 0 76 62 100 35 17 5 0 14 27 91 73 175 133 171 181 254 295 354 379 451 587 590 844 790 869 1039 877 769 456 393 374 643 779 1144 1070 1451
0 0 0 0 0 0 31 14 98 79 120 29 72 15 76 102 34 40 76 190 152 190 163 218 269 303 314 405 462 511 803 812 500 612 839 499 353 510 569 642 1163 961 1374 1610
0 0 0 0 0 0 87 174 203 210 123 49 38 38 39 52 58 47 64 132 182 135 99 124 193 267 332 343 376 391 638 733 622 779 497 468 273 578 365 579 773 724 681 944
0 0 0 0 0 0 101 217 174 124 84 90 61 70 16 13 97 103 44 73 109 120 95 85 198 269 298 311 319 271 520 777 864 727 455 467 573 546 733 811 684 628 630 637
0 0 0 0 0 0 1 96 76 44 71 64 62 53 25 1 2 93 93 143 64 113 58 95 171 252 294 311 346 287 453 669 731 741 702 788 506 514 174 268 249 494 521 479
0 0 0 39 92 174 111 95 72 53 105 23 49 39 22 11 35 66 39 103 26 41 60 84 150 237 288 332 345 352 387 667 644 569 722 807 495 368 581 504 735 504 630 578
2 3 0 0 108 233 438 309 123 37 45 24 83 55 14 37 106 45 9 24 106 103 55 78 181 238 246 329 371 447 461 688 742 447 528 551 612 719 740 548 519 544 680 833
0 0 15 0 64 207 207 332 273 164 4 71 55 24 260 189 369 131 6 17 98 109 86 67 165 231 292 305 377 480 527 667 777 702 420 456 513 567 710 602 745 852 835 535
0 0 15 45 4 8 127 238 199 138 120 59 14 16 482 546 405 258 32 0 11 59 177 98 139 221 284 364 424 499 544 612 693 646 579 608 622 616 414 489 576 736 1029 1322
0 0 1 17 19 60 124 311 252 120 43 5 18 39 516 636 563 500 192 44 0 7 43 105 171 201 247 434 513 601 675 658 666 665 619 665 743 694 427 409 663 739 987 1249
0 0 0 30 15 19 182 335 454 198 65 26 2 0 224 615 630 474 447 318 105 131 92 100 144 127 294 396 667 723 753 784 796 733 651 663 736 802 722 749 893 990 1153 1269
0 0 0 0 0 17 28 356 367 317 173 137 59 15 36 366 629 482 451 410 344 179 136 217 123 177 531 566 642 821 835 918 858 942 975 962 993 909 923 883 1053 1026 1052 1248
0 0 0 0 0 31 35 153 340 431 476 395 365 350 639 560 461 447 388 337 358 475 304 233 196 256 441 758 650 718 899 1003 1173 1159 1179 1214 1373 1320 1059 1066 1127 1103 1190 1401
0 0 0 0 37 45 96 102 181 218 514 429 382 690 785 640 648 300 218 225 231 318 592 405 324 446 554 507 715 477 943 1288 1023 1262 1331 1337 1490 1552 1195 1186 1068 1221 1285 1261
0 0 0 0 15 2 118 320 349 452 431 523 555 622 776 859 387 230 151 119 153 139 263 619 451 301 234 327 546 874 891 1337 1047 785 933 1094 1231 1419 1156 1227 1125 1206 1232 1139
0 8 14 13 14 26 22 126 250 377 177 486 666 910 803 631 361 249 96 79 81 84 145 327 571 752 349 424 558 569 655 473 601 899 965 1143 1126 1106 1098 1101 1082 835 838 768
0 0 3 47 47 29 213 293 369 422 163 325 785 914 644 665 756 505 104 41 63 87 107 288 286 285 523 761 799 742 748 796 942 657 419 321 330 134 221 122 156 97 147 48
2 32 0 37 72 88 192 304 459 96 299 808 954 988 771 680 520 232 67 29 9 56 93 189 162 179 190 353 438 309 254 249 239 276 280 185 112 80 53 110 71 51 5 0
0 4 30 38 40 34 317 355 370 605 844 838 1109 972 747 445 200 67 29 7 5 16 22 95 156 188 121 175 420 316 293 274 287 275 244 244 135 76 27 0 0 0 0 0
0 4 125 30 58 363 355 441 594 571 818 884 817 817 652 420 294 123 32 4 5 4 3 3 24 19 54 65 114 23 78 140 91 78 24 1 0 0 6 0 1 0 0 0
9 141 18 176 56 175 287 289 523 595 603 765 908 759 536 381 231 230 124 126 56 3 2 4 1 0 1 4 5 3 1 30 1 0 0 4 0 0 0 1 4 3 3 2
33 128 72 26 20 186 345 576 772 666 742 1084 1089 741 628 441 314 373 290 230 148 42 3 3 4 3 3 3 3 3 3 4 4 3 3 1 1 0 0 0 0 0 0 0
14 0 12 11 0 71 679 651 797 874 805 905 594 741 602 532 376 299 141 15 39 39 12 6 3 1 2 4 4 3 2 1 0 0 0 1 0 0 0 0 1 1 1 0
CIN
-0 -0 -0 -1 -14 -4 -0 -1 -11 -20 -28 -42 -35 -13 -21 -16 -22 -25 -1 -2 -1 -1 -1 -1 -2 -4 -2 -2 -1 -1 -2 -0 -0 -1 -1 -1 -2 -1 -2 -5 -2 -7 -10 -15
-0 -0 -0 -0 -0 -0 -1 -1 -7 -50 -60 -26 -41 -23 -21 -18 -7 -43 -1 -1 -1 -1 -1 -2 -2 -1 -1 -2 -2 -1 -1 -0 -3 -1 -1 -2 -1 -1 -1 -4 -2 -2 -15 -17
-0 -0 -0 -0 -0 -0 -0 -1 -2 -1 -34 -26 -51 -2 -39 -32 -8 -11 -13 -2 -2 -1 -2 -1 -1 -1 -1 -2 -1 -1 -1 -0 -1 -0 -0 -0 -4 -0 -4 -1 -1 -3 -15 -8
-0 -0 -0 -0 -0 -0 -2 -0 -10 -18 -7 -1 -39 -2 -0 -51 -29 -14 -19 -1 -2 -3 -2 -2 -1 -3 -1 -2 -2 -2 -1 -1 -1 -5 -1 -1 -3 -1 -1 -1 -1 -1 -17 -3
-0 -0 -0 -0 -0 -0 -3 -27 -2 -9 -2 -11 -2 -5 -2 -26 -21 -19 -42 -2 -1 -2 -3 -3 -2 -2 -5 -1 -1 -2 -1 -4 -3 -10 -2 -8 -8 -2 -2 -1 -2 -1 -7 -3
-0 -0 -0 -0 -0 -0 -26 -13 -14 -2 -1 -2 -5 -5 -2 -14 -12 -62 -59 -25 -4 -6 -5 -1 -3 -2 -2 -2 -2 -2 -1 -3 -6 -1 -4 -9 -2 -1 -1 -2 -1 -1 -1 -1
-0 -0 -0 -0 -0 -0 -25 -2 -4 -2 -2 -1 -12 -5 -6 -11 -13 -3 -70 -74 -25 -4 -3 -2 -2 -1 -4 -2 -7 -4 -4 -0 -3 -1 -1 -8 -2 -4 -4 -3 -4 -2 -1 -1
-0 -0 -0 -0 -0 -0 -4 -3 -6 -7 -3 -6 -28 -7 -5 -2 -1 -1 -1 -30 -73 -5 -3 -4 -2 -1 -1 -5 -13 -13 -21 -11 -5 -5 -1 -3 -3 -3 -9 -8 -2 -2 -2 -1
-0 -0 -0 -12 -12 -4 -5 -19 -5 -10 -3 -3 -4 -14 -31 -14 -7 -2 -2 -5 -91 -24 -3 -5 -1 -3 -4 -11 -23 -24 -22 -18 -15 -13 -10 -2 -4 -13 -2 -1 -3 -2 -0 -1
-1 -2 -0 -0 -17 -21 -9 -4 -4 -7 -35 -2 -3 -2 -8 -4 -3 -5 -25 -4 -18 -17 -5 -4 -2 -5 -5 -14 -18 -26 -20 -17 -8 -18 -18 -13 -4 -4 -4 -8 -8 -1 -1 -1
-0 -0 -11 -0 -7 -5 -13 -4 -4 -11 -11 -12 -3 -2 -12 -36 -68 -43 -55 -36 -4 -26 -25 -16 -7 -7 -23 -10 -16 -24 -27 -18 -7 -4 -17 -17 -10 -8 -7 -3 -2 -1 -5 -17
-0 -0 -4 -9 -9 -36 -18 -5 -10 -4 -5 -3 -8 -2 -80 -101 -120 -51 -72 -0 -88 -50 -2 -40 -20 -15 -16 -27 -25 -27 -28 -28 -27 -12 -10 -13 -9 -9 -19 -20 -9 -4 -0 -1
-0 -0 -2 -6 -5 -19 -3 -2 -3 -6 -7 -3 -3 -2 -98 -111 -110 -61 -26 -69 -0 -80 -78 -61 -46 -22 -19 -39 -41 -41 -42 -33 -23 -27 -26 -19 -15 -18 -29 -28 -21 -11 -2 -1
-0 -0 -0 -10 -28 -24 -4 -3 -3 -2 -5 -7 -3 -0 -22 -66 -89 -103 -42 -53 -82 -61 -99 -68 -24 -80 -32 -41 -73 -66 -51 -48 -31 -32 -38 -38 -40 -26 -19 -11 -10 -8 -6 -8
-0 -0 -0 -0 -4 -32 -17 -3 -3 -2 -2 -3 -18 -38 -23 -70 -100 -155 -123 -72 -74 -88 -108 -92 -89 -38 -44 -50 -63 -73 -56 -54 -39 -30 -33 -39 -27 -22 -14 -8 -5 -11 -5 -7
-0 -0 -0 -0 -0 -22 -10 -3 -1 -3 -3 -1 -5 -22 -80 -134 -186 -173 -200 -204 -152 -84 -121 -116 -87 -53 -54 -55 -109 -76 -55 -51 -41 -34 -28 -25 -23 -27 -35 -21 -5 -2 -0 -1
-0 -0 -0 -0 -1 -2 -3 -2 -4 -3 -3 -5 -3 -19 -103 -127 -126 -262 -284 -313 -269 -178 -62 -63 -61 -36 -27 -81 -85 -105 -45 -29 -83 -45 -29 -26 -10 -12 -22 -13 -11 -1 -0 -0
-0 -0 -0 -0 -1 -1 -5 -27 -10 -5 -3 -15 -28 -58 -85 -72 -208 -280 -334 -388 -332 -341 -196 -55 -56 -56 -46 -44 -67 -57 -56 -11 -39 -67 -44 -19 -3 -1 -4 -2 -2 -0 -0 -0
-0 -14 -3 -1 -2 -4 -2 -7 -12 -2 -2 -8 -21 -37 -72 -134 -199 -231 -335 -410 -397 -394 -294 -152 -32 -14 -47 -31 -95 -115 -95 -84 -71 -29 -25 -15 -23 -29 -24 -6 -1 -1 -0 -0
-0 -0 -3 -3 -1 -1 -8 -13 -24 -15 -17 -2 -18 -14 -80 -73 -34 -97 -301 -405 -412 -379 -332 -158 -110 -99 -37 -19 -10 -12 -9 -18 -11 -49 -82 -75 -58 -166 -66 -68 -62 -93 -39 -29
-2 -5 -0 -4 -2 -2 -5 -19 -19 -12 -17 -27 -6 -0 -5 -19 -77 -204 -322 -373 -428 -356 -314 -220 -207 -180 -148 -70 -47 -94 -142 -99 -76 -70 -63 -81 -102 -119 -79 -10 -0 -10 -53 -0
-0 -1 -3 -3 -2 -2 -29 -18 -5 -28 -35 -29 -0 -1 -0 -65 -160 -280 -308 -381 -428 -359 -342 -278 -218 -176 -225 -163 -51 -57 -49 -57 -39 -35 -41 -45 -61 -79 -111 -0 -0 -0 -0 -0
-0 -1 -3 -5 -2 -17 -26 -17 -22 -44 -21 -15 -11 -2 -31 -47 -80 -146 -236 -0 -0 -0 -0 -16 -291 -289 -229 -187 -140 -225 -167 -115 -93 -60 -117 -22 -0 -0 -69 -0 -0 -0 -0 -0
-6 -30 -3 -11 -3 -11 -27 -49 -55 -42 -22 -4 -11 -32 -50 -73 -100 -104 -133 -147 -176 -6 -0 -0 -0 -0 -0 -0 -0 -0 -0 -148 -0 -0 -0 -0 -0 -0 -0 -0 -0 -0 -0 -0
-16 -40 -3 -10 -27 -19 -35 -31 -13 -35 -21 -1 -3 -23 -38 -57 -58 -49 -95 -106 -122 -192 -0 -0 -0 -0 -0 -0 -0 -0 -0 -0 -0 -0 -0 -0 -0 -0 -0 -0 -0 -0 -0 -0
-17 -0 -9 -3 -0 -35 -6 -16 -26 -11 -5 -2 -8 -4 -20 -35 -42 -55 -111 -145 -178 -166 -109 -0 -0 -0 -0 -0 -0 -0 -0 -0 -0 -0 -0 -0 -0 -0 -0 -0 -0 -0 -0 -0
Wind_Speed
3 7 12 15 15 15 15 12 13 12 13 15 13 9 30 12 6 18 27 26 26 26 24 26 27 26 24 24 24 28 28 28 29 29 28 26 25 23 21 22 20 19 18 16
5 6 10 14 14 16 16 16 14 14 16 18 16 14 9 13 5 38 31 25 28 26 25 27 27 28 27 25 26 27 29 29 30 29 28 27 25 23 22 22 22 20 19 19
5 7 8 10 16 20 20 21 19 19 17 17 18 17 15 18 8 37 37 33 25 29 26 26 28 28 29 26 26 27 29 30 30 28 30 26 23 22 24 24 24 24 23 21
8 8 6 13 16 20 26 20 20 18 23 23 22 23 21 17 5 27 28 33 34 34 29 26 27 29 30 28 27 29 29 31 30 30 29 30 29 27 25 26 24 23 24 23
10 8 5 15 19 16 23 18 21 23 24 25 22 24 18 19 20 19 40 38 36 33 35 32 26 28 29 28 28 28 31 32 31 30 29 31 29 24 24 24 23 24 23 23
11 9 8 16 14 18 15 18 20 24 26 28 23 24 21 21 23 11 38 35 38 38 33 34 29 25 27 26 31 31 32 33 33 30 30 31 29 26 26 24 23 24 24 25
9 6 9 11 11 7 8 15 24 27 27 27 21 23 19 19 18 16 7 13 28 34 39 31 34 29 23 23 27 33 30 33 34 33 31 32 30 30 28 27 27 24 25 25
10 6 4 6 12 10 10 21 28 28 29 24 21 23 17 23 22 16 21 9 18 33 40 15 14 28 26 21 20 24 22 33 34 34 32 30 29 29 30 29 28 27 26 24
12 8 8 12 12 13 8 23 25 27 23 26 22 24 25 18 13 13 21 13 15 43 27 14 17 28 27 21 17 20 23 33 34 34 33 31 31 30 29 28 29 29 26 23
15 9 8 9 13 19 25 21 25 27 24 26 21 23 23 19 16 14 19 27 17 20 19 19 22 24 24 8 12 14 16 19 32 34 33 33 32 31 31 27 29 29 27 28
19 12 8 10 11 16 15 24 27 19 27 24 25 20 18 18 20 18 19 25 20 19 24 35 29 28 28 20 8 7 11 16 22 23 33 33 32 31 31 31 31 30 28 28
16 17 4 11 14 22 27 27 24 32 29 24 25 23 17 18 17 15 13 13 20 21 28 33 33 31 23 21 17 10 7 12 15 15 18 22 22 25 10 22 31 30 30 28
17 11 4 5 10 17 24 22 29 29 33 27 28 21 17 15 14 14 13 13 16 27 36 36 33 33 28 22 18 13 13 15 9 5 11 16 18 11 15 14 13 18 27 29
17 17 11 17 20 21 19 23 26 30 32 30 28 32 23 20 16 14 15 15 19 29 35 31 37 39 31 24 20 19 17 16 16 14 9 4 4 4 3 3 2 3 4 16
16 11 18 19 25 26 29 28 26 30 29 29 24 29 27 23 19 19 17 17 17 23 23 23 31 32 28 25 21 19 19 18 18 18 17 17 16 15 14 17 16 17 16 16
16 16 18 21 21 26 34 31 28 29 28 29 27 29 18 17 17 18 20 19 18 19 18 19 20 26 30 24 23 21 21 20 19 18 19 17 17 16 16 15 15 15 19 20
16 14 14 13 18 24 31 34 32 32 28 28 29 22 17 17 18 18 19 18 19 18 20 18 18 24 27 27 23 21 21 19 20 21 21 21 19 17 14 16 17 18 17 17
12 11 13 10 17 6 20 20 25 31 31 29 31 27 23 18 15 19 19 17 18 18 17 13 14 16 23 26 22 18 16 19 18 19 18 19 22 23 24 19 20 19 22 20
13 11 12 10 6 14 25 23 24 28 32 26 29 25 22 20 17 18 19 18 16 17 17 14 10 8 9 19 15 18 20 24 23 25 24 22 20 18 20 23 22 24 24 21
13 10 8 9 12 12 18 18 20 22 34 25 24 23 22 22 22 16 18 18 17 16 14 11 7 7 8 4 10 12 12 14 17 19 15 16 15 19 21 25 23 23 22 22
12 12 9 8 8 20 18 18 18 27 23 21 19 19 17 22 21 18 16 16 15 15 13 9 7 6 6 5 6 4 5 9 13 13 14 15 20 20 21 18 22 21 20 21
14 15 11 12 11 12 18 15 21 21 21 22 19 17 16 15 14 14 15 15 13 12 11 10 8 9 10 11 8 7 8 8 8 7 9 11 14 14 14 15 13 18 10 15
12 10 15 12 17 20 20 21 20 22 21 18 19 16 13 14 13 12 12 12 12 11 10 9 8 8 9 9 7 5 8 7 8 9 9 10 12 13 13 14 13 11 12 9
8 8 8 16 14 22 24 24 25 26 22 16 14 10 9 14 13 11 11 9 9 9 8 8 8 7 6 7 7 7 7 8 8 10 11 12 12 13 12 13 13 11 12 13
15 8 7 15 17 22 25 20 19 17 18 15 12 13 12 13 11 14 12 10 8 8 7 7 7 7 7 8 9 9 9 9 10 10 11 11 12 11 12 10 13 13 13 13
3 3 2 21 23 22 18 11 11 11 13 15 13 10 8 6 6 7 7 9 10 8 7 6 6 6 7 8 8 8 9 9 9 9 10 11 10 11 11 12 13 16 15 15
Wind_Direction
28 299 276 272 283 286 286 295 296 311 288 296 333 24 203 139 152 159 161 153 152 154 143 149 155 151 141 144 143 158 178 182 186 190 193 194 191 192 194 191 194 200 204 212
44 302 295 284 279 278 278 283 290 297 288 282 301 297 292 160 198 211 181 158 169 157 151 158 158 159 156 151 153 155 168 177 184 191 195 195 196 196 199 195 196 199 199 204
78 341 319 292 273 267 271 273 277 282 283 291 294 285 291 283 271 222 208 189 163 167 157 158 162 163 168 155 158 158 164 181 189 199 196 201 208 208 195 192 188 188 193 198
76 357 321 289 280 271 263 273 274 277 270 274 287 275 285 279 246 238 175 188 189 184 168 159 160 167 171 167 162 164 167 182 194 195 199 193 194 193 197 193 194 200 200 200
30 100 14 287 277 287 275 283 269 270 274 272 278 266 283 269 266 173 193 195 200 181 185 178 164 166 169 165 163 163 175 184 197 199 201 191 198 213 210 208 210 203 209 209
355 3 343 299 301 282 293 277 273 270 268 263 271 275 276 267 259 264 198 187 201 208 179 185 171 160 163 157 175 173 176 188 194 206 205 201 206 211 211 215 218 207 204 196
19 50 331 313 311 307 288 270 260 260 257 261 274 272 290 292 278 261 244 217 192 193 198 173 184 168 157 154 162 185 171 184 193 202 208 207 211 204 213 212 205 216 212 207
15 44 63 332 296 305 279 266 255 257 258 261 274 268 287 295 280 270 265 248 195 184 195 183 222 166 163 155 152 158 154 182 191 199 208 217 220 217 200 191 210 207 220 233
8 11 334 310 305 289 299 265 266 263 267 263 264 265 269 306 298 284 271 266 220 196 176 221 234 234 166 157 152 154 157 187 204 198 210 221 218 210 218 229 210 214 235 250
344 14 356 339 302 282 265 280 260 257 261 255 262 267 275 285 301 290 288 262 235 195 224 227 235 238 238 200 156 151 152 156 187 198 210 216 215 208 217 240 215 222 239 228
315 341 17 333 307 287 283 266 260 267 263 263 259 273 295 285 289 290 295 268 242 193 230 229 235 237 237 240 215 176 154 154 164 168 195 210 221 226 232 228 216 211 215 213
332 315 6 323 316 281 262 262 263 252 253 271 266 267 288 317 306 295 326 312 240 235 230 230 233 235 241 242 241 235 221 159 158 160 164 171 174 252 278 217 222 243 232 244
334 351 20 179 316 292 269 271 259 266 260 264 255 266 278 302 310 289 295 314 252 239 234 235 236 234 239 241 240 240 247 254 253 183 160 165 168 162 168 167 168 185 255 254
334 325 334 222 297 289 276 270 265 259 257 264 264 253 264 270 275 283 277 272 254 237 237 243 237 234 239 242 242 243 247 252 256 261 261 228 204 239 210 189 204 177 297 293
336 344 324 310 294 282 267 266 267 259 264 265 278 266 262 268 288 272 266 269 263 254 254 254 241 239 239 241 244 244 246 250 254 259 261 265 272 277 281 281 284 285 289 294
342 341 328 314 302 283 263 263 266 263 267 266 267 271 293 293 295 297 270 267 264 263 268 265 251 242 240 239 243 248 248 251 254 259 263 269 273 277 281 285 289 289 286 287
340 343 346 337 317 292 269 260 260 262 266 267 264 280 293 296 294 295 298 294 272 261 250 268 265 251 245 242 245 248 251 253 254 260 267 274 279 282 282 285 286 286 289 291
344 352 343 338 326 309 292 288 274 264 265 267 266 273 275 292 301 277 284 294 288 280 271 305 290 266 243 240 242 251 259 254 259 268 274 283 283 283 283 284 283 285 285 288
349 354 350 346 338 316 292 288 275 266 262 271 267 270 273 275 286 288 275 277 289 284 277 299 346 290 269 246 255 258 258 251 264 267 271 283 286 290 287 284 285 285 287 289
357 359 356 354 341 335 309 306 291 285 260 273 270 270 268 267 276 288 275 275 279 288 290 302 326 20 49 315 256 256 260 267 271 274 291 293 298 301 298 291 284 280 286 289
2 0 350 343 335 313 317 307 298 265 269 281 271 270 273 265 275 279 277 277 280 280 292 317 320 313 320 351 69 46 304 287 277 291 297 304 299 310 311 307 296 287 287 282
350 352 0 358 348 328 317 320 286 288 290 279 269 269 271 274 279 283 276 273 280 283 289 301 306 305 300 298 309 318 313 322 319 333 332 333 337 343 352 346 339 306 305 296
354 2 350 359 328 322 309 298 299 285 286 286 265 268 271 263 273 280 284 280 283 283 286 296 307 316 310 307 312 331 318 343 337 334 331 337 344 349 5 356 4 357 348 321
12 17 11 337 343 313 300 291 276 264 274 284 274 267 279 265 269 277 280 291 292 299 297 302 303 314 317 306 317 324 324 324 335 332 325 329 339 347 341 352 11 354 326 319
343 33 15 332 278 310 290 300 292 283 281 279 275 267 270 268 267 252 262 279 294 305 306 311 315 312 311 309 314 309 307 321 337 339 337 341 345 350 356 327 326 346 338 339
42 161 37 297 309 299 321 341 330 302 281 266 266 264 268 275 277 278 290 286 281 295 301 311 313 320 323 328 334 324 330 342 360 346 336 339 343 346 349 337 344 340 327 329